sat.trackr.live / text

‹ back to catalog

SHIYAN-24C 03

NORAD 58652 · 2023-206C

PAYLOAD ACTIVE UNKNOWN

§ Identity

Operator
Country
PRC
Launch date
2023-12-25
Launch site
SCSLA
Launch vehicle
Mass (kg)
RCS (m²)

External: N2YO · Heavens-Above · Gunter

§ Orbital elements

Epoch: 2026-05-20T18:22:16.943232Z

Period
96.12 min
Inclination
97.4033°
Eccentricity
0.0001696
Mean motion
14.98098494 rev/d
Perigee alt
571.6 km
Apogee alt
574.0 km
Semi-major
6,950.9 km
B*
8.0671e-5
RAAN
109.9068°
Arg perigee
106.4949°
Mean anomaly
253.6461°
Rev number
13,119

§ Raw data

SHIYAN-24C 031 58652U 23206C   26140.76547388  .00000901  00000+0  80671-4 0  99952 58652  97.4033 109.9068 0001696 106.4949 253.6461 14.98098494131190

JSON: /api/v1/satellites/58652 · /tle

For live sub-satellite position, see the globe view (requires WebGL).

§ Visibility from observer

Set your observer location to see the next 7 days of passes ≥ 10°. The values pass through the URL so the page stays shareable.

No JS? Fill the form by hand. The geolocation button needs JavaScript.